[[{"header":{"parameterUnit":"m.s-1","parameterCategory":1,"la1":30.2992,"la2":30.254,"lo1":-89.0895,"lo2":-89.0443,"dy":0.0025,"dx":0.0025,"nx":19,"ny":19,"refTime":"2026-03-08T09:00:00:Z","depth":0,"parameterNumber":2,"parameterNumberName":"U-component_of_WINDS"},"data":[0,0,0,-0.4071,-0.4069,-0.3971,-0.397,-0.3857,-0.3856,0,0,0,0,0,0,0,0,0,0,0,-0.4109,-0.4109,-0.4071,-0.4069,-0.3971,-0.397,-0.3857,-0.3856,0,0,0,0,0,0,0,0,0,0,0,-0.411,-0.4109,-0.4108,-0.4069,-0.3971,-0.397,-0.3857,-0.3927,0,0,0,0,0,0,0,0,0,0,-0.402,-0.4064,-0.4109,-0.4108,-0.4068,-0.3971,-0.397,-0.393,-0.3922,-0.3908,0,-0.3898,0,-0.3875,-0.3849,-0.3849,0,0,0,-0.4062,-0.4071,-0.4036,-0.4108,-0.4067,-0.3971,-0.4013,-0.3926,-0.3917,-0.3898,-0.3896,-0.3891,-0.3873,-0.3849,-0.3848,-0.3789,-0.3789,0,0,-0.4067,-0.4096,-0.4042,-0.4031,-0.4049,-0.4016,-0.401,-0.392,-0.392,-0.3895,-0.3888,-0.3872,-0.3848,-0.3847,-0.3789,-0.3789,0,0,0,-0.4088,-0.41,-0.4067,-0.4036,-0.4018,-0.4014,-0.4006,-0.3924,-0.3911,-0.3887,-0.387,-0.3847,-0.3846,-0.3789,-0.3789,-0.3821,0,0,0,-0.4091,-0.4112,-0.407,-0.4087,-0.402,-0.397,-0.4012,-0.3917,-0.3906,-0.3871,-0.3847,-0.3845,-0.3789,-0.3789,-0.382,-0.3831,0,0,0,-0.4113,-0.4114,-0.4103,-0.4089,-0.4047,-0.397,-0.3952,-0.3914,-0.3896,-0.3849,-0.3845,-0.3789,-0.3789,-0.3819,-0.3829,-0.3824,0,0,0,-0.4144,-0.4132,-0.4104,-0.4084,-0.4048,-0.3991,-0.3952,-0.3908,-0.3871,-0.3847,-0.3789,-0.3789,-0.3818,-0.3828,-0.3823,-0.3825,-0.3828,0,0,-0.4144,-0.4133,-0.4118,-0.4091,-0.4047,-0.4004,-0.3963,-0.3902,-0.387,-0.3818,-0.3816,-0.382,-0.3829,-0.3824,-0.3838,-0.3842,0,0,0,-0.4128,-0.4119,-0.41,-0.4068,-0.4022,-0.3983,-0.3926,-0.3903,-0.3858,-0.385,-0.3816,-0.382,-0.3816,-0.3816,-0.3818,-0.3813,-0.379,-0.379,-0.379,-0.4169,-0.4131,-0.4106,-0.4056,-0.4025,-0.3967,-0.3937,-0.3897,-0.3866,-0.3859,-0.3843,-0.3857,-0.3857,-0.3859,-0.3854,-0.3841,-0.3841,-0.3841,-0.3841,-0.4167,-0.4147,-0.4108,-0.407,-0.4029,-0.3996,-0.3939,-0.3919,-0.3881,-0.3865,-0.386,-0.3846,-0.3864,-0.3857,-0.3843,-0.3843,-0.3843,-0.3842,-0.3842,-0.4189,-0.4173,-0.4147,-0.4097,-0.4062,-0.4012,-0.3979,-0.3943,-0.3908,-0.3903,-0.3882,-0.3882,-0.3877,-0.3896,-0.3896,-0.3896,-0.3896,-0.3896,-0.3896,-0.4223,-0.4193,-0.4169,-0.4121,-0.4096,-0.4058,-0.4,-0.3974,-0.3935,-0.3912,-0.3911,-0.3882,-0.3873,-0.3872,-0.3896,-0.3896,-0.3896,-0.3896,-0.3896,-0.4234,-0.4226,-0.4191,-0.4166,-0.4106,-0.4074,-0.4029,-0.398,-0.3953,-0.3937,-0.3909,-0.3909,-0.3894,-0.3891,-0.389,-0.3918,-0.3918,-0.3918,-0.3918,-0.4254,-0.4243,-0.4199,-0.4162,-0.4121,-0.4077,-0.4037,-0.3992,-0.3944,-0.3925,-0.3916,-0.3911,-0.391,-0.3895,-0.3893,-0.3891,-0.3918,-0.3918,-0.3918,-0.4258,-0.4243,-0.4216,-0.417,-0.4121,-0.408,-0.4041,-0.3999,-0.3943,-0.3918,-0.3909,-0.3909,-0.3901,-0.39,-0.3874,-0.3871,-0.3867,0,0]},{"header":{"parameterUnit":"m.s-1","parameterCategory":1,"la1":30.2992,"la2":30.254,"lo1":-89.0895,"lo2":-89.0443,"dy":0.0025,"dx":0.0025,"nx":19,"ny":19,"refTime":"2026-03-08T09:00:00:Z","depth":0,"parameterNumber":3,"parameterNumberName":"V-component_of_WINDS"},"data":[0,0,0,2.2887,2.2887,2.2879,2.2879,2.2884,2.2884,0,0,0,0,0,0,0,0,0,0,0,2.2897,2.2898,2.2887,2.2887,2.2879,2.2879,2.2884,2.2884,0,0,0,0,0,0,0,0,0,0,0,2.2897,2.2898,2.2898,2.2887,2.2879,2.2879,2.2884,2.2885,0,0,0,0,0,0,0,0,0,0,2.289,2.2907,2.2897,2.2898,2.2887,2.2879,2.2879,2.2884,2.2885,2.2893,0,2.2903,0,2.2893,2.2885,2.2885,0,0,0,2.2881,2.2907,2.2897,2.2898,2.2887,2.288,2.2881,2.2884,2.2884,2.2893,2.2902,2.2902,2.2893,2.2885,2.2885,2.2955,2.2955,0,0,2.2882,2.29,2.2897,2.2898,2.2899,2.2881,2.2881,2.2884,2.2895,2.2902,2.2902,2.2894,2.2885,2.2885,2.2954,2.2955,0,0,0,2.2887,2.2901,2.2891,2.2898,2.2896,2.2881,2.2881,2.2895,2.289,2.2902,2.2894,2.2885,2.2886,2.2954,2.2954,2.3004,0,0,0,2.2887,2.2904,2.2892,2.2903,2.2896,2.2895,2.2892,2.289,2.289,2.2894,2.2885,2.2886,2.2953,2.2954,2.3001,2.3024,0,0,0,2.2895,2.2905,2.2906,2.2904,2.2902,2.2895,2.289,2.289,2.2885,2.2885,2.2886,2.2952,2.2954,2.2998,2.302,2.305,0,0,0,2.291,2.295,2.2908,2.2949,2.2902,2.2925,2.289,2.2906,2.2911,2.2886,2.2953,2.2954,2.2998,2.3017,2.3047,2.3079,2.3093,0,0,2.2971,2.2958,2.2981,2.2943,2.2978,2.2924,2.2967,2.2954,2.2937,2.295,2.2951,2.3002,2.302,2.3049,2.3165,2.3177,0,0,0,2.3007,2.3024,2.3029,2.3035,2.3026,2.3021,2.2999,2.2995,2.3005,2.2947,2.3019,2.3029,2.3045,2.306,2.307,2.3083,2.2961,2.2961,2.2961,2.3122,2.3097,2.3134,2.3109,2.3115,2.3093,2.3096,2.3086,2.3059,2.3077,2.3081,2.3155,2.3173,2.318,2.3194,2.3094,2.3095,2.3095,2.3095,2.3211,2.3232,2.3195,2.3217,2.3192,2.321,2.3191,2.3171,2.3186,2.3149,2.3162,2.3127,2.3194,2.3205,2.3098,2.3098,2.3097,2.3097,2.3097,2.3285,2.3291,2.3284,2.3291,2.33,2.3272,2.3288,2.3263,2.324,2.3253,2.3256,2.3255,2.3253,2.3256,2.3256,2.3256,2.3256,2.3257,2.3257,2.3366,2.3356,2.3373,2.3367,2.3368,2.3367,2.3344,2.3345,2.334,2.3321,2.332,2.3293,2.3204,2.3183,2.3261,2.326,2.326,2.3259,2.3259,2.3469,2.3442,2.3467,2.3468,2.346,2.347,2.3438,2.3442,2.3438,2.3447,2.3417,2.3354,2.3339,2.3331,2.3314,2.3421,2.3421,2.3421,2.3421,2.3534,2.3523,2.3544,2.3548,2.3548,2.3522,2.3552,2.3536,2.3514,2.3511,2.3491,2.3466,2.3458,2.3448,2.3437,2.3421,2.3553,2.3553,2.3553,2.3597,2.3585,2.3616,2.3594,2.3585,2.3579,2.3607,2.3614,2.3583,2.3558,2.3508,2.3503,2.3461,2.3448,2.3424,2.3408,2.3377,0,0]}]]